Volver al catálogo

GONETS D1 5

ActivoComunicacionesPO
NORAD 24729·PAYLOAD·🇷🇺 Russia

Lanzado Feb 14, 1997 desde Plesetsk Cosmodrome

Loading…

Próximos Pases (próximas 24 horas)

TLE

ActualizadoSource: Space-Track

Época: Sep 14, 2026, 06:50 UTC

1 24729U 97006E   26257.28524329  .00000027  00000-0  90203-4 0  9990
2 24729  82.6024 185.8065 0005465  54.6990  99.4847 12.62988166363703

Sigue GONETS D1 5 en tiempo real con AllMySat

Download on the App Store